Regional Weather Roundup
Issued by NWS

Home | Current Version | Previous Version | Graphics & Text | Print | Product List | Glossary On
Versions: 1 2 3 4 5 6 7 8 9 10 11 12 13 14 15 16 17 18 19 20 21 22 23 24 25 26 27 28 29 30 31 32 33 34 35 36 37 38 39 40 41 42 43 44 45 46 47 48 49 50
000
ASUS43 KMKX 250900
RWRWI

WISCONSIN REGIONAL WEATHER ROUNDUP
NATIONAL WEATHER SERVICE MILWAUKEE/SULLIVAN WI
400 AM CDT SUN SEP 25 2016

NOTE: "FAIR" INDICATES FEW OR NO CLOUDS BELOW 12,000 FEET WITH NO
SIGNIFICANT WEATHER AND/OR OBSTRUCTIONS TO VISIBILITY.

WIZ001-002-006>008-014>016-023>028-251000-
NORTHWEST WISCONSIN

CITY           SKY/WX    TMP DP  RH WIND       PRES   REMARKS
SUPERIOR ARPT  CLOUDY    61  60  97 E5        29.94F
ASHLAND        CLOUDY    60  56  86 SE5       29.99F
HAYWARD        CLOUDY    62  58  86 S12       30.00S
SIREN          CLOUDY    65  60  86 S10G21    29.95F
CUMBERLAND     CLOUDY    61  59  94 SE8       29.99F
RICE LAKE      CLOUDY    62  59  90 SE10      30.01S
CHETEK         NOT AVBL
LADYSMITH      CLOUDY    61  59  92 SE12      30.04F
EAU CLAIRE     NOT AVBL
MENOMONIE      CLOUDY    64  62  91 SE7       29.99F
NEW RICHMOND   CLOUDY    65  63  93 SE8       29.97S
OSCEOLA        CLOUDY    66  66 100 SE9G17    29.97F
$$

WIZ003>005-009-010-017-018-251000-
NORTH CENTRAL WISCONSIN

CITY           SKY/WX    TMP DP  RH WIND       PRES   REMARKS
MANITOWISH WTR NOT AVBL
ARBOR VITAE    CLOUDY    59  55  87 SE13      30.08F
WOODRUFF       CLOUDY    59  55  87 SE13      30.08F
RHINELANDER    CLOUDY    58  55  90 SE7       30.10F
EAGLE RIVER    CLOUDY    56  51  81 S5        30.10S
LAND O LAKES   CLOUDY    56  52  85 SE6       30.11F
PHILLIPS       CLOUDY    60  58  92 SE9       30.04F
TOMAHAWK       CLOUDY    56  53  89 SE3       30.09S
MEDFORD        CLOUDY    58  58 100 SE9G17    30.06F
MERRILL        PTCLDY    55  55  97 SE7       30.09F
$$

WIZ029-030-035-036-043>047-251000-
CENTRAL WISCONSIN

CITY           SKY/WX    TMP DP  RH WIND       PRES   REMARKS
WAUSAU         MOCLDY    56  54  93 E7        30.07F
MOSINEE        PTCLDY    54  54 100 E6        30.10F
MARSHFIELD     MOCLDY    58  55  90 SE8       30.05F
STEVENS POINT  PTCLDY    55  55 100 E5        30.09F
WAUPACA        CLOUDY    58  57  97 CALM      30.10F
WAUTOMA        CLOUDY    56  56 100 NE3       30.08F
WISC RAPIDS    CLOUDY    58  57  97 SE6       30.07F
CAMP DOUGLAS   CLOUDY    60  59  97 E7        30.04F
$$

WIZ011>013-019>022-031-037>040-048>050-251000-
NORTHEAST WISCONSIN

CITY           SKY/WX    TMP DP  RH WIND       PRES   REMARKS
ANTIGO         MOCLDY    55  53  94 CALM      30.11F
SHAWANO        CLOUDY    61  56  84 E3        30.12S
OCONTO         NOT AVBL
STURGEON BAY   CLOUDY    61  55  81 SE8       30.14S
GREEN BAY      CLOUDY    61  59  93 SE6       30.11F
MANITOWOC      NOT AVBL
APPLETON       CLEAR     59  57  94 E6        30.09F
CLINTONVILLE   NOT AVBL
OSHKOSH        PTCLDY    60  57  89 CALM      30.09F
$$

WIZ032>034-041-042-053>061-251000-
SOUTHWEST WISCONSIN

CITY           SKY/WX    TMP DP  RH WIND       PRES   REMARKS
LA CROSSE      CLOUDY    68  63  84 SE6       29.99F
SPARTA         MOCLDY    63  61  94 CALM      30.03F
VIROQUA        CLOUDY    62  62 100 SE12      30.03F
BOSCOBEL       MOCLDY    63  62  97 CALM      30.03F FOG
PRAIRIE DU CHI CLOUDY    65  62  88 E7        30.01F
PLATTEVILLE    CLOUDY    64  64 100 E12       30.04F
$$

WIZ056-057-062-063-064-067-068-251000-
SOUTH CENTRAL WISCONSIN

CITY           SKY/WX    TMP DP  RH WIND       PRES   REMARKS
REEDSBURG      NOT AVBL
BARABOO/DELLS  CLOUDY    63  60  91 SE5       30.06F
LONE ROCK      NOT AVBL
MINERAL POINT  MOCLDY    64  64 100 SE9       30.05F
MADISON        CLOUDY    63  61  93 S3        30.06F
MIDDLETON      CLOUDY    64  64 100 SE7       30.07F
WATERTOWN      CLOUDY    62  62 100 SE7       30.08F
MONROE         CLOUDY    61  61 100 E6        30.07F FOG
JANESVILLE     CLOUDY    63  63 100 SE3       30.08F
$$

WIZ051-052-058>065-066-070>072-251000-
SOUTHEAST WISCONSIN

CITY           SKY/WX    TMP DP  RH WIND       PRES   REMARKS
MILWAUKEE      PTCLDY    65  62  90 SE6       30.11S
WAUKESHA       PTCLDY    59  59 100 E5        30.12F
MILWAUKEE/TIMM CLEAR     64  59  82 CALM      30.12S
RACINE         CLEAR     68  63  84 S10       30.12F
BURLINGTON     PTCLDY    56  55  99 CALM      30.10F FOG
KENOSHA        CLEAR     66  62  87 SE9       30.11F
FOND DU LAC    CLOUDY    62  59  90 SE6       30.09F
SHEBOYGAN      CLOUDY    63  58  83 SE6       30.12F
WEST BEND      CLEAR     59  57  94 SE3       30.11F
JUNEAU         CLOUDY    62  60  94 SE9       30.10F
$$

LSZ147-162-251000-
LAKE SUPERIOR

STATION/POSITION TIME  TEMP    WIND        PRES    WAVE
                       AIR SEA DIR/SP/G            HT/PER
                 (UTC) (F)     (DEG/KT/KT) (MB)    (FT/S)
W MID LAKE BUOY  0750   63 61  150/ 12/ 16 1016.4F   3/ 5
DEVILS ISLAND    0800   62     130/  6/  8 1015.9F
SAXON HARBOR     0840   62     220/  2/  5 1015.2F
$$

LMZ867-665-643>646-251000-
LAKE MICHIGAN

STATION/POSITION TIME  TEMP    WIND        PRES    WAVE
                       AIR SEA DIR/SP/G            HT/PER
                 (UTC) (F)     (DEG/KT/KT) (MB)    (FT/S)
CHAMBERS ISLAND  0800   63     130/  6/ 12 1020.0F
S GREEN BAY BUOY 0800   63 66  130/ 12/ 14 1019.7F
N MID LAKE BUOY  0750   62 67  160/ 16/ 19 1020.6F   3/ 4
NORTHPORT PIER   0800   64     150/ 10/ 16 1020.7F
SISTER BAY       0838   63     170/ 11/ 15   N/A
KEWAUNEE LAKESHO 0800   63     150/ 11/ 16 1020.1F
SHEBOYGAN LAKESH 0800   64     150/ 13/ 15 1019.7F
PORT WASHINGTON  0840   63      CALM  /  2 1020.7F
ATWATER BUOY     0800   63 62  160/  4/  6 1019.8F
MILWAUKEE LAKESH 0810   63     170/  1/  2   N/A
S MID LAKE BUOY  0750   68 72  130/ 17/ 19 1019.7F   3/ 5
KENOSHA   LAKESH 0800   66     170/  8/  9 1019.3F
$$

TC  - TEMPERATURE IN CELSIUS
VSB - VISIBILITY IN STATUTE MILES
WCI - WIND CHILL INDEX
HX  - HEAT INDEX





USA.gov is the U.S. government's official web portal to all federal, state and local government web resources and services.